DW6860 Weather Reports


Display with metric or nautical units.
time (UTC)temp
F
wind
direction
speed
MPH
gust
MPH
rain 1hr
in
rain 24hr
in
rain mn
in
humidity
%
barometer
mb
20260506113510 60 26 6.0 15.0 0.00 0.00 0.00 52 1008.2
20260506113253 60 25 6.0 15.0 0.00 0.00 0.00 52 1008.1
20260506113008 60 23 6.0 15.0 0.00 0.00 0.00 52 1008.1
20260506112751 60 23 6.0 15.0 0.00 0.00 0.00 53 1008.1
20260506112528 60 23 6.0 14.0 0.00 0.00 0.00 53 1008.1
20260506112249 60 23 6.0 14.0 0.00 0.00 0.00 53 1008.1
20260506112008 60 22 6.0 14.0 0.00 0.00 0.00 52 1008.1
20260506111754 60 355 6.0 16.0 0.00 0.00 0.00 51 1008.0
20260506111508 60 29 6.0 16.0 0.00 0.00 0.00 51 1008.1
20260506111249 60 19 6.0 16.0 0.00 0.00 0.00 52 1008.0
20260506111009 60 36 7.0 16.0 0.00 0.00 0.00 51 1008.1
20260506110742 60 261 6.0 16.0 0.00 0.00 0.00 51 1008.0
20260506110544 60 49 7.0 16.0 0.00 0.00 0.00 51 1008.1
20260506110508 60 27 7.0 16.0 0.00 0.00 0.00 52 1008.1
20260506110209 59 13 5.0 12.0 0.00 0.00 0.00 58 1008.0
20260506110120 59 30 5.0 12.0 0.00 0.00 0.00 58 1008.0
20260506110008 60 23 7.0 16.0 0.00 0.00 0.00 53 1008.1
20260506105850 60 49 7.0 16.0 0.00 0.00 0.00 53 1008.0
20260506105529 60 25 7.0 16.0 0.00 0.00 0.00 54 1008.1
20260506105432 59 41 5.0 11.0 0.00 0.00 0.00 58 1008.0
20260506105325 60 78 6.0 15.0 0.00 0.00 0.00 56 1007.9
20260506105030 59 23 7.0 14.0 0.00 0.00 0.00 58 1008.0
20260506104507 59 28 5.0 12.0 0.00 0.00 0.00 57 1008.0
20260506104010 59 31 5.0 11.0 0.00 0.00 0.00 57 1008.1
20260506103653 58 5 7.0 14.0 0.00 0.00 0.00 59 1007.9
20260506103559 58 18 7.0 15.0 0.00 0.00 0.00 59 1007.9
20260506103508 59 31 5.0 11.0 0.00 0.00 0.00 57 1008.0
20260506103354 59 33 5.0 11.0 0.00 0.00 0.00 57 1007.9
20260506103008 59 32 5.0 11.0 0.00 0.00 0.00 58 1008.0
20260506102830 59 30 6.0 15.0 0.00 0.00 0.00 58 1007.8
20260506102509 59 27 6.0 15.0 0.00 0.00 0.00 59 1007.9
20260506102009 58 26 7.0 15.0 0.00 0.00 0.00 59 1008.0
20260506101508 58 27 6.0 14.0 0.00 0.00 0.00 60 1007.9
20260506101243 58 13 5.0 14.0 0.00 0.00 0.00 62 1007.9
20260506101029 58 29 6.0 14.0 0.00 0.00 0.00 62 1007.8
20260506100734 58 0 5.0 11.0 0.00 0.00 0.00 63 1007.7
20260506100508 57 26 6.0 14.0 0.00 0.00 0.00 64 1007.8
20260506100238 57 31 6.0 14.0 0.00 0.00 0.00 65 1007.8
20260506100010 57 26 6.0 14.0 0.00 0.00 0.00 66 1007.8
20260506095740 57 34 6.0 14.0 0.00 0.00 0.00 66 1007.8
20260506095508 57 27 5.0 11.0 0.00 0.00 0.00 66 1007.8
20260506095240 57 42 4.0 10.0 0.00 0.00 0.00 67 1007.7
20260506095029 57 16 4.0 10.0 0.00 0.00 0.00 67 1007.8
20260506094736 57 61 4.0 10.0 0.00 0.00 0.00 68 1007.8
20260506094542 57 20 4.0 12.0 0.00 0.00 0.00 68 1007.7
20260506094531 57 5 5.0 10.0 0.00 0.00 0.00 68 1007.7
20260506094511 57 21 4.0 10.0 0.00 0.00 0.00 68 1007.8
20260506094333 57 348 5.0 10.0 0.00 0.00 0.00 68 1007.7
20260506094029 57 32 4.0 10.0 0.00 0.00 0.00 68 1007.8
20260506093508 57 32 4.0 10.0 0.00 0.00 0.00 69 1007.7
20260506093235 56 68 5.0 12.0 0.00 0.00 0.00 68 1007.7
20260506093009 57 25 4.0 12.0 0.00 0.00 0.00 68 1007.7
20260506092508 57 21 5.0 12.0 0.00 0.00 0.00 68 1007.8
20260506092237 56 5 5.0 12.0 0.00 0.00 0.00 69 1007.6
20260506092009 56 17 6.0 14.0 0.00 0.00 0.00 69 1007.7
20260506091733 56 18 7.0 14.0 0.00 0.00 0.00 68 1007.6
20260506091508 56 10 6.0 14.0 0.00 0.00 0.00 69 1007.7
20260506091233 56 22 6.0 14.0 0.00 0.00 0.00 70 1007.6
20260506091008 56 14 5.0 13.0 0.00 0.00 0.00 70 1007.6
20260506090930 56 20 6.0 14.0 0.00 0.00 0.00 70 1007.5
20260506090814 56 20 5.0 13.0 0.00 0.00 0.00 70 1007.6
20260506090507 56 25 5.0 12.0 0.00 0.00 0.00 70 1007.6
20260506090008 56 23 6.0 14.0 0.00 0.00 0.00 70 1007.6
20260506085738 56 33 5.0 14.0 0.00 0.00 0.00 70 1007.5
20260506085508 57 18 5.0 14.0 0.00 0.00 0.00 71 1007.5
20260506085233 57 21 4.0 13.0 0.00 0.00 0.00 72 1007.4
20260506085008 56 13 5.0 13.0 0.00 0.00 0.00 72 1007.5
20260506084732 56 23 5.0 13.0 0.00 0.00 0.00 73 1007.5
20260506084529 56 15 5.0 13.0 0.00 0.00 0.00 73 1007.4
20260506084226 56 15 7.0 13.0 0.00 0.00 0.00 73 1007.4
20260506084008 56 18 6.0 13.0 0.00 0.00 0.00 74 1007.5
20260506083723 56 31 6.0 13.0 0.00 0.00 0.00 74 1007.4
20260506083508 56 23 5.0 13.0 0.00 0.00 0.00 74 1007.5
20260506083225 55 5 4.0 13.0 0.00 0.00 0.00 75 1007.4
20260506083008 55 29 4.0 10.0 0.00 0.00 0.00 76 1007.4
20260506082723 55 45 4.0 10.0 0.00 0.00 0.00 76 1007.3
20260506082529 55 28 4.0 9.0 0.00 0.00 0.00 77 1007.4
20260506082221 54 9 3.0 11.0 0.00 0.00 0.00 79 1007.3
20260506082009 54 21 3.0 11.0 0.00 0.00 0.00 80 1007.3
20260506081822 53 327 3.0 6.0 0.00 0.00 0.00 82 1007.4
20260506081740 54 25 3.0 11.0 0.00 0.00 0.00 81 1007.3
20260506081508 54 15 3.0 11.0 0.00 0.00 0.00 82 1007.4
20260506081008 53 15 3.0 6.0 0.00 0.00 0.00 82 1007.4
20260506080730 53 9 3.0 5.0 0.00 0.00 0.00 83 1007.4
20260506080508 53 16 3.0 9.0 0.00 0.00 0.00 83 1007.4
20260506080221 53 0 3.0 9.0 0.00 0.00 0.00 83 1007.3
20260506073508 52 19 4.0 11.0 0.00 0.00 0.00 86 1007.3
20260506073208 51 37 4.0 11.0 0.00 0.00 0.00 86 1007.3
20260506073008 51 21 4.0 11.0 0.00 0.00 0.00 86 1007.3
20260506072713 51 344 4.0 11.0 0.00 0.00 0.00 87 1007.3
20260506072509 51 21 4.0 11.0 0.00 0.00 0.00 87 1007.3
20260506072228 51 30 4.0 11.0 0.00 0.00 0.00 87 1007.3
20260506072009 51 16 4.0 10.0 0.00 0.00 0.00 87 1007.3
20260506071716 51 26 3.0 9.0 0.00 0.00 0.00 88 1007.3
20260506071508 51 18 4.0 8.0 0.00 0.00 0.00 88 1007.3
20260506071212 51 67 3.0 9.0 0.00 0.00 0.00 88 1007.3
20260506071029 51 23 3.0 9.0 0.00 0.00 0.00 89 1007.4
20260506070912 51 0 3.0 8.0 0.00 0.00 0.00 90 1007.2
20260506070831 51 19 2.0 6.0 0.00 0.00 0.00 90 1007.2
20260506070740 51 39 3.0 9.0 0.00 0.00 0.00 89 1007.3
20260506070507 51 15 3.0 9.0 0.00 0.00 0.00 89 1007.3
20260506062507 50 5 2.0 5.0 0.00 0.00 0.00 91 1007.2
20260506062008 49 358 2.0 8.0 0.00 0.00 0.00 91 1007.1
20260506061707 49 348 2.0 8.0 0.00 0.00 0.00 91 1007.0
20260506061508 49 5 2.0 8.0 0.00 0.00 0.00 91 1007.0
20260506061204 49 0 2.0 5.0 0.00 0.00 0.00 91 1007.0
20260506061008 49 12 2.0 5.0 0.00 0.00 0.00 91 1007.0
20260506060711 49 26 2.0 6.0 0.00 0.00 0.00 91 1006.9
20260506060507 49 14 2.0 6.0 0.00 0.00 0.00 91 1006.9
20260506060201 49 19 2.0 6.0 0.00 0.00 0.00 91 1007.0
20260506051144 49 14 3.0 6.0 0.00 0.00 0.00 92 1007.0
20260506051029 48 18 3.0 7.0 0.00 0.00 0.00 92 1007.1
20260506050643 48 17 2.0 7.0 0.00 0.00 0.00 92 1007.0
20260506050508 48 21 3.0 7.0 0.00 0.00 0.00 92 1007.0
20260506050140 49 5 2.0 7.0 0.00 0.00 0.00 92 1007.0
20260506045135 48 28 3.0 8.0 0.00 0.00 0.00 92 1007.1
20260506045008 48 15 3.0 8.0 0.00 0.00 0.00 92 1007.1
20260506044643 49 324 3.0 8.0 0.00 0.00 0.00 92 1007.2
20260506044508 48 13 3.0 8.0 0.00 0.00 0.00 92 1007.2
20260506044132 49 15 3.0 7.0 0.00 0.00 0.00 92 1007.2
20260506044008 48 16 2.0 6.0 0.00 0.00 0.00 92 1007.2
20260506043811 49 340 2.0 7.0 0.00 0.00 0.00 91 1007.1
20260506043650 49 350 2.0 6.0 0.00 0.00 0.00 92 1007.2
20260506043529 48 13 2.0 6.0 0.00 0.00 0.00 91 1007.3
20260506043008 48 15 2.0 7.0 0.00 0.00 0.00 91 1007.1
20260506042649 49 28 3.0 7.0 0.00 0.00 0.00 91 1007.1
20260506042507 48 23 3.0 7.0 0.00 0.00 0.00 91 1007.2
20260506042136 49 13 3.0 7.0 0.00 0.00 0.00 91 1007.1
20260506042009 48 15 3.0 7.0 0.00 0.00 0.00 91 1007.2
20260506041739 49 0 3.0 6.0 0.00 0.00 0.00 91 1007.1
20260506041647 49 19 3.0 6.0 0.00 0.00 0.00 91 1007.1
20260506041528 48 7 2.0 6.0 0.00 0.00 0.00 91 1007.1
20260506041009 48 12 2.0 5.0 0.00 0.00 0.00 91 1007.1
20260506040632 49 11 2.0 6.0 0.00 0.00 0.00 91 1007.1
20260506040507 48 11 2.0 6.0 0.00 0.00 0.00 91 1007.0
20260506040143 49 38 2.0 6.0 0.00 0.00 0.00 91 1007.1
20260506040008 49 9 2.0 6.0 0.00 0.00 0.00 91 1007.1
20260506035635 49 348 2.0 5.0 0.00 0.00 0.00 91 1007.1
20260506035507 49 10 2.0 5.0 0.00 0.00 0.00 91 1007.2
20260506035135 49 45 1.0 5.0 0.00 0.00 0.00 91 1007.2
20260506035007 49 11 1.0 5.0 0.00 0.00 0.00 91 1007.2
20260506034637 49 28 2.0 4.0 0.00 0.00 0.00 91 1007.3
20260506034508 49 13 2.0 5.0 0.00 0.00 0.00 90 1007.2
20260506034133 49 9 2.0 5.0 0.00 0.00 0.00 90 1007.2
20260506034008 49 9 2.0 5.0 0.00 0.00 0.00 90 1007.3
20260506033632 49 348 2.0 5.0 0.00 0.00 0.00 90 1007.3
20260506033507 49 13 2.0 4.0 0.00 0.00 0.00 90 1007.3
20260506033133 49 351 2.0 8.0 0.00 0.00 0.00 90 1007.4
20260506033008 49 18 3.0 8.0 0.00 0.00 0.00 90 1007.3
20260506032826 49 20 3.0 7.0 0.00 0.00 0.00 90 1007.3
20260506032704 49 13 3.0 8.0 0.00 0.00 0.00 90 1007.3
20260506032528 49 19 3.0 8.0 0.00 0.00 0.00 90 1007.3
20260506032008 49 20 3.0 7.0 0.00 0.00 0.00 90 1007.3
20260506031634 49 17 4.0 8.0 0.00 0.00 0.00 90 1007.3
20260506031508 49 17 4.0 8.0 0.00 0.00 0.00 90 1007.3
20260506031151 49 21 4.0 9.0 0.00 0.00 0.00 89 1007.2
20260506031129 49 27 4.0 9.0 0.00 0.00 0.00 89 1007.3
20260506031008 49 16 4.0 9.0 0.00 0.00 0.00 89 1007.4
20260506030508 49 16 4.0 9.0 0.00 0.00 0.00 89 1007.3
20260506030132 49 17 3.0 9.0 0.00 0.00 0.00 89 1007.3
20260506030009 49 16 3.0 5.0 0.00 0.00 0.00 89 1007.5
20260506025645 49 11 3.0 7.0 0.00 0.00 0.00 88 1007.5
20260506025627 49 28 3.0 7.0 0.00 0.00 0.00 89 1007.4
20260506025507 49 16 3.0 7.0 0.00 0.00 0.00 89 1007.5
20260506025007 49 17 3.0 7.0 0.00 0.00 0.00 88 1007.5
20260506024614 49 0 3.0 8.0 0.00 0.00 0.00 88 1007.5
20260506024507 49 17 3.0 10.0 0.00 0.00 0.00 88 1007.6
20260506024115 49 26 3.0 10.0 0.00 0.00 0.00 88 1007.5
20260506024008 49 16 3.0 10.0 0.00 0.00 0.00 88 1007.6
20260506023617 49 37 3.0 10.0 0.00 0.01 0.00 87 1007.5
20260506023528 50 19 3.0 10.0 0.00 0.01 0.00 87 1007.6
20260506023119 50 44 3.0 8.0 0.00 0.01 0.00 87 1007.5
20260506023008 50 17 3.0 8.0 0.00 0.01 0.00 87 1007.7
20260506022620 50 11 3.0 8.0 0.00 0.01 0.00 87 1007.6
20260506022509 50 19 3.0 7.0 0.00 0.01 0.00 86 1007.6
20260506022120 50 36 3.0 8.0 0.00 0.01 0.00 86 1007.7
20260506022029 50 22 3.0 10.0 0.00 0.01 0.00 86 1007.7
20260506021628 50 16 4.0 10.0 0.00 0.02 0.00 86 1007.6
20260506021508 50 20 4.0 10.0 0.00 0.02 0.00 85 1007.7
20260506021122 50 24 5.0 10.0 0.00 0.02 0.00 85 1007.5
20260506021008 50 18 4.0 9.0 0.00 0.03 0.00 85 1007.7
20260506020623 50 30 5.0 9.0 0.00 0.03 0.00 85 1007.6
20260506020509 50 18 5.0 9.0 0.00 0.03 0.00 84 1007.6
20260506020132 50 346 4.0 9.0 0.00 0.03 0.00 84 1007.5
20260506020008 50 21 4.0 9.0 0.00 0.03 0.00 84 1007.5
20260506015611 50 29 4.0 9.0 0.00 0.03 0.00 84 1007.6
20260506015529 50 27 4.0 9.0 0.00 0.03 0.00 84 1007.6
20260506015114 50 32 4.0 11.0 0.00 0.03 0.00 84 1007.5
20260506015007 50 29 4.0 11.0 0.00 0.03 0.00 84 1007.5
20260506014709 50 15 5.0 14.0 0.00 0.03 0.00 83 1007.4
20260506014623 50 17 4.0 11.0 0.00 0.03 0.00 83 1007.5
20260506014528 50 22 4.0 11.0 0.00 0.03 0.00 83 1007.6
20260506014029 50 12 5.0 14.0 0.00 0.03 0.00 83 1007.5
20260506013616 50 28 5.0 14.0 0.00 0.03 0.00 83 1007.6
20260506013507 50 12 5.0 14.0 0.00 0.03 0.00 83 1007.6
20260506013114 50 14 5.0 12.0 0.00 0.03 0.00 83 1007.5
20260506013009 50 15 5.0 12.0 0.00 0.03 0.00 83 1007.5
20260506012607 50 5 6.0 12.0 0.00 0.03 0.00 83 1007.5
20260506012507 50 18 6.0 13.0 0.00 0.03 0.00 83 1007.5
20260506012113 50 355 7.0 13.0 0.00 0.03 0.00 83 1007.4
20260506012007 50 20 7.0 13.0 0.00 0.03 0.00 83 1007.5
20260506011608 50 26 5.0 13.0 0.00 0.03 0.00 83 1007.6
20260506011509 50 21 5.0 12.0 0.00 0.03 0.00 83 1007.6
20260506011101 50 19 4.0 12.0 0.00 0.03 0.00 83 1007.6
20260506011010 50 17 3.0 11.0 0.00 0.03 0.00 83 1007.6
20260506010611 50 20 4.0 8.0 0.00 0.03 0.00 83 1007.6
20260506010507 50 13 4.0 8.0 0.00 0.03 0.00 83 1007.7
20260506010125 50 29 4.0 12.0 0.00 0.03 0.00 83 1007.7
20260506010008 50 14 5.0 12.0 0.00 0.03 0.00 83 1007.7
20260506005601 50 23 5.0 12.0 0.00 0.03 0.00 82 1007.7
20260506005507 50 17 5.0 12.0 0.00 0.03 0.00 82 1007.8
20260506005228 50 0 5.0 10.0 0.00 0.03 0.00 82 1007.7
20260506005121 50 18 5.0 12.0 0.00 0.03 0.00 82 1007.7
20260506005008 50 19 5.0 12.0 0.00 0.03 0.00 82 1007.8
20260506004507 50 19 5.0 10.0 0.00 0.03 0.00 82 1007.8
20260506004056 50 5 5.0 11.0 0.00 0.03 0.00 82 1007.8
20260506004008 50 19 5.0 11.0 0.00 0.03 0.00 82 1007.9
20260506003603 50 335 4.0 11.0 0.00 0.03 0.00 82 1007.8
20260506003508 50 16 5.0 11.0 0.00 0.03 0.00 82 1007.9
20260506003052 50 5 5.0 11.0 0.00 0.03 0.00 81 1008.0
20260506003009 50 19 5.0 11.0 0.00 0.03 0.00 81 1008.1
20260506002554 51 46 5.0 11.0 0.00 0.03 0.00 81 1007.9
20260506002507 50 22 5.0 11.0 0.00 0.03 0.00 81 1008.1
20260506002058 51 27 5.0 11.0 0.00 0.03 0.00 81 1008.0
20260506002008 50 21 5.0 11.0 0.00 0.03 0.00 81 1008.1
20260506001553 51 30 5.0 10.0 0.00 0.03 0.00 81 1008.1
20260506001507 51 19 4.0 10.0 0.00 0.03 0.00 81 1008.1
20260506001059 51 27 5.0 10.0 0.00 0.03 0.00 81 1008.1
20260506001030 51 18 5.0 10.0 0.00 0.03 0.00 81 1008.1
20260506000555 51 19 5.0 12.0 0.00 0.03 0.00 81 1008.1
20260506000507 51 19 5.0 12.0 0.00 0.03 0.00 81 1008.1
20260506000056 51 22 4.0 12.0 0.00 0.03 0.00 80 1008.2
20260506000009 51 21 4.0 12.0 0.00 0.03 0.00 80 1008.1
20260505235723 51 33 4.0 11.0 0.00 0.03 0.00 80 1008.2
20260505235632 51 28 4.0 11.0 0.00 0.03 0.00 80 1008.2
20260505235507 51 19 4.0 11.0 0.00 0.03 0.00 80 1008.2
20260505235007 51 17 4.0 11.0 0.00 0.03 0.00 80 1008.2
20260505234550 51 5 5.0 10.0 0.00 0.03 0.00 80 1008.2
20260505234507 51 19 5.0 10.0 0.00 0.03 0.00 80 1008.3
20260505234050 51 52 5.0 11.0 0.00 0.03 0.00 80 1008.3
20260505234007 51 16 5.0 11.0 0.00 0.03 0.00 80 1008.3
20260505233628 51 23 4.0 10.0 0.00 0.03 0.00 79 1008.3
20260505233601 51 5 4.0 11.0 0.00 0.03 0.00 79 1008.4
20260505233507 51 15 4.0 11.0 0.00 0.03 0.00 79 1008.3
20260505233007 51 17 4.0 10.0 0.00 0.03 0.00 79 1008.4
20260505232606 51 348 5.0 14.0 0.00 0.03 0.00 79 1008.4
20260505232508 51 19 5.0 14.0 0.00 0.03 0.00 79 1008.4
20260505232052 51 26 5.0 14.0 0.00 0.03 0.00 79 1008.3
20260505232008 51 19 5.0 14.0 0.00 0.03 0.00 79 1008.3
20260505231542 51 5 4.0 10.0 0.00 0.03 0.00 79 1008.4
20260505231507 51 18 4.0 10.0 0.00 0.03 0.00 79 1008.4
20260505231050 51 19 4.0 10.0 0.00 0.03 0.00 79 1008.4
20260505231029 51 18 4.0 10.0 0.00 0.03 0.00 79 1008.5
20260505230549 51 57 4.0 10.0 0.00 0.03 0.00 79 1008.3
20260505230507 51 20 4.0 10.0 0.00 0.03 0.00 79 1008.3
20260505230115 51 9 4.0 9.0 0.00 0.03 0.00 79 1008.4
20260505230008 52 20 3.0 9.0 0.00 0.03 0.00 79 1008.4
20260505225542 51 25 4.0 9.0 0.00 0.03 0.00 78 1008.4
20260505225528 52 16 4.0 9.0 0.00 0.03 0.00 78 1008.4
20260505225043 51 11 4.0 9.0 0.00 0.03 0.00 78 1008.4
20260505225008 52 15 4.0 9.0 0.00 0.03 0.00 78 1008.4
20260505224541 52 9 4.0 8.0 0.00 0.03 0.00 78 1008.5
20260505224507 52 16 4.0 8.0 0.00 0.03 0.00 78 1008.5
20260505224049 52 355 5.0 12.0 0.00 0.03 0.00 78 1008.6
20260505224007 52 17 5.0 12.0 0.00 0.03 0.00 78 1008.6
20260505223540 52 13 6.0 12.0 0.00 0.03 0.00 78 1008.6
20260505223507 52 16 6.0 12.0 0.00 0.03 0.00 78 1008.7
20260505223046 52 22 5.0 12.0 0.00 0.03 0.00 77 1008.6
20260505223029 52 18 5.0 12.0 0.00 0.03 0.00 77 1008.6
20260505222544 52 15 5.0 12.0 0.00 0.03 0.00 77 1008.7
20260505222528 52 19 5.0 12.0 0.00 0.03 0.00 77 1008.7
20260505222257 52 0 4.0 10.0 0.00 0.03 0.00 77 1008.7
20260505222131 52 25 4.0 9.0 0.00 0.03 0.00 77 1008.6
20260505222029 52 17 4.0 9.0 0.00 0.03 0.00 77 1008.7
20260505221507 52 16 5.0 10.0 0.00 0.03 0.00 77 1008.7
20260505221036 52 25 5.0 10.0 0.00 0.04 0.00 77 1008.6
20260505221008 52 14 5.0 10.0 0.00 0.04 0.00 77 1008.7
20260505220545 52 329 4.0 10.0 0.00 0.04 0.00 77 1008.7
20260505220530 52 15 4.0 10.0 0.00 0.04 0.00 77 1008.7
20260505220107 52 21 4.0 10.0 0.00 0.04 0.00 77 1008.7
20260505220033 52 16 3.0 10.0 0.00 0.04 0.00 77 1008.8
20260505215758 52 17 4.0 9.0 0.00 0.04 0.00 77 1008.7
20260505215750 52 0 4.0 11.0 0.00 0.04 0.00 77 1008.8
20260505215621 52 48 3.0 8.0 0.00 0.04 0.00 77 1008.8
20260505215507 52 16 3.0 8.0 0.00 0.04 0.04 77 1008.8
20260505215007 52 17 4.0 9.0 0.00 0.04 0.04 77 1008.8
20260505214508 52 17 4.0 11.0 0.00 0.04 0.04 77 1008.8
20260505214035 52 21 4.0 11.0 0.00 0.04 0.00 77 1008.9
20260505214008 52 19 4.0 11.0 0.00 0.04 0.04 77 1008.9
20260505213532 53 338 4.0 9.0 0.00 0.04 0.00 77 1008.8
20260505213529 52 16 4.0 9.0 0.00 0.04 0.04 77 1008.8
20260505213033 53 30 4.0 9.0 0.00 0.04 0.00 77 1008.9
20260505213008 53 15 4.0 9.0 0.00 0.04 0.04 77 1008.9
20260505212812 53 17 3.0 6.0 0.00 0.04 0.00 78 1008.8
20260505212638 53 346 3.0 9.0 0.00 0.04 0.00 77 1008.8
20260505212507 53 18 3.0 9.0 0.00 0.04 0.04 77 1008.8
20260505212008 53 20 3.0 7.0 0.00 0.04 0.04 78 1008.9
20260505211536 53 28 3.0 7.0 0.00 0.04 0.00 78 1008.9
20260505211507 53 19 3.0 7.0 0.00 0.04 0.04 78 1008.9
20260505211044 53 63 4.0 9.0 0.00 0.04 0.00 78 1008.9
20260505211008 53 15 4.0 9.0 0.00 0.04 0.04 78 1008.9
20260505210741 53 18 3.0 7.0 0.00 0.04 0.00 78 1008.9
20260505210612 53 16 4.0 9.0 0.00 0.04 0.00 78 1008.8
20260505210507 53 16 3.0 9.0 0.00 0.04 0.04 78 1008.9
20260505210009 53 19 3.0 6.0 0.00 0.04 0.04 77 1008.9
20260505205818 53 22 4.0 9.0 0.00 0.04 0.00 77 1008.9
20260505205617 53 0 3.0 8.0 0.00 0.04 0.00 77 1008.9
20260505205528 53 21 3.0 8.0 0.00 0.04 0.04 77 1008.9
20260505205009 53 21 4.0 9.0 0.00 0.04 0.04 77 1009.0
20260505204538 53 27 4.0 9.0 0.00 0.04 0.00 77 1008.9
20260505204507 53 20 4.0 9.0 0.00 0.04 0.04 77 1008.9
20260505204312 53 27 5.0 9.0 0.00 0.05 0.00 76 1009.0
20260505204113 53 22 3.0 9.0 0.00 0.04 0.00 77 1008.9
20260505204008 53 20 3.0 9.0 0.00 0.04 0.04 77 1009.0
20260505203552 53 24 3.0 8.0 0.00 0.04 0.00 77 1009.0
20260505203508 53 23 3.0 8.0 0.00 0.04 0.04 77 1009.0
20260505203254 53 19 3.0 8.0 0.00 0.04 0.00 77 1009.0
20260505203008 53 26 3.0 9.0 0.00 0.04 0.04 77 1009.0
20260505202928 53 13 4.0 9.0 0.00 0.06 0.00 76 1009.0
20260505202630 53 59 4.0 9.0 0.00 0.05 0.00 76 1008.9
20260505202509 53 24 4.0 9.0 0.00 0.05 0.04 76 1009.0
20260505202028 53 23 5.0 9.0 0.00 0.05 0.04 76 1009.0
20260505201507 54 23 4.0 9.0 0.00 0.06 0.04 76 1009.0
20260505201032 53 14 3.0 9.0 0.00 0.07 0.00 76 1009.0
20260505201008 54 22 3.0 9.0 0.00 0.07 0.04 76 1009.0
20260505200549 54 19 4.0 12.0 0.00 0.08 0.00 76 1009.0
20260505200528 54 21 4.0 12.0 0.00 0.08 0.04 76 1009.0
20260505200054 54 340 5.0 12.0 0.00 0.08 0.00 75 1008.9
20260505200029 54 22 5.0 12.0 0.00 0.08 0.04 75 1009.0
20260505195538 54 27 5.0 12.0 0.00 0.08 0.00 75 1008.8
20260505195510 54 22 5.0 12.0 0.00 0.08 0.04 75 1008.9
20260505195041 54 42 4.0 10.0 0.00 0.08 0.00 75 1008.8
20260505195007 54 22 4.0 10.0 0.00 0.08 0.04 75 1008.8
20260505194539 54 34 4.0 9.0 0.00 0.08 0.00 75 1008.9
20260505194507 54 25 4.0 9.0 0.00 0.08 0.04 75 1008.9
20260505194040 54 21 5.0 11.0 0.00 0.08 0.00 75 1008.8
20260505194008 54 23 5.0 11.0 0.00 0.08 0.04 75 1008.8
20260505193526 55 25 4.0 11.0 0.00 0.08 0.00 75 1008.8
20260505193507 54 22 4.0 11.0 0.00 0.08 0.04 75 1008.8
20260505193032 55 38 4.0 10.0 0.00 0.08 0.00 75 1008.7
20260505193028 55 27 4.0 10.0 0.00 0.08 0.04 75 1008.7
20260505192538 55 355 5.0 12.0 0.00 0.08 0.00 75 1008.7
20260505192528 55 26 5.0 12.0 0.00 0.08 0.04 75 1008.8
20260505192035 55 28 6.0 12.0 0.00 0.08 0.00 75 1008.7
20260505192007 55 23 6.0 12.0 0.00 0.08 0.04 75 1008.7
20260505191533 55 21 4.0 10.0 0.00 0.08 0.00 76 1008.6
20260505191507 55 22 4.0 10.0 0.00 0.08 0.04 76 1008.6
20260505191317 55 5 3.0 6.0 0.00 0.08 0.00 78 1008.5
20260505191109 55 24 3.0 10.0 0.00 0.08 0.00 77 1008.6
20260505191009 55 26 3.0 10.0 0.00 0.08 0.04 77 1008.6
20260505190507 55 28 3.0 6.0 0.00 0.08 0.04 78 1008.5
20260505190259 56 51 2.0 5.0 0.00 0.08 0.00 78 1008.5
20260505190114 56 9 3.0 6.0 0.00 0.08 0.00 78 1008.6
20260505190008 56 31 3.0 6.0 0.00 0.08 0.04 78 1008.6
20260505185542 56 45 2.0 5.0 0.00 0.08 0.00 78 1008.5
20260505185507 56 31 2.0 5.0 0.00 0.08 0.04 78 1008.5
20260505185008 56 33 2.0 5.0 0.00 0.08 0.04 78 1008.5
20260505184528 56 36 2.0 7.0 0.00 0.08 0.00 78 1008.4
20260505184506 56 33 2.0 7.0 0.00 0.08 0.04 78 1008.4
20260505184034 56 45 3.0 7.0 0.00 0.08 0.00 78 1008.4
20260505184007 56 28 3.0 7.0 0.00 0.08 0.04 78 1008.4
20260505183525 56 32 3.0 5.0 0.00 0.08 0.00 78 1008.4
20260505183507 56 31 3.0 5.0 0.00 0.08 0.04 78 1008.4
20260505183036 56 17 2.0 5.0 0.00 0.08 0.00 77 1008.4
20260505183029 56 35 2.0 5.0 0.00 0.08 0.04 77 1008.4
20260505182619 56 53 2.0 5.0 0.00 0.08 0.00 77 1008.3
20260505182533 56 65 2.0 8.0 0.00 0.08 0.00 77 1008.3
20260505182507 56 30 2.0 8.0 0.00 0.08 0.04 77 1008.4
20260505182455 56 42 3.0 8.0 0.00 0.08 0.00 77 1008.3
20260505182133 56 22 1.0 8.0 0.00 0.08 0.00 77 1008.3
20260505182007 56 33 1.0 8.0 0.00 0.08 0.04 77 1008.4
20260505181507 56 37 2.0 5.0 0.00 0.08 0.04 77 1008.4
20260505181007 56 27 3.0 8.0 0.00 0.08 0.04 77 1008.3
20260505180826 56 5 3.0 8.0 0.00 0.08 0.00 76 1008.2
20260505180616 56 15 3.0 8.0 0.00 0.08 0.00 77 1008.2
20260505180507 56 31 3.0 8.0 0.00 0.08 0.04 77 1008.2
20260505180028 56 30 3.0 8.0 0.00 0.08 0.04 76 1008.2
20260505175528 56 29 3.0 8.0 0.00 0.08 0.04 76 1008.2
20260505175521 56 28 3.0 6.0 0.00 0.08 0.00 76 1008.2
20260505175016 56 50 3.0 8.0 0.00 0.08 0.00 76 1008.2
20260505175007 56 28 3.0 8.0 0.00 0.08 0.04 76 1008.2
20260505174517 57 16 3.0 9.0 0.00 0.08 0.00 76 1008.2
20260505174507 57 24 3.0 9.0 0.00 0.08 0.04 76 1008.3
20260505174020 57 24 3.0 9.0 0.00 0.08 0.00 76 1008.2
20260505174007 57 31 3.0 9.0 0.00 0.08 0.04 76 1008.2
20260505173534 57 0 3.0 9.0 0.00 0.08 0.00 76 1008.3
20260505173529 57 42 3.0 9.0 0.00 0.08 0.04 76 1008.3
20260505173027 57 86 3.0 8.0 0.00 0.08 0.00 76 1008.3
20260505173007 57 30 3.0 8.0 0.00 0.08 0.04 76 1008.3
20260505172530 57 26 3.0 8.0 0.00 0.08 0.04 77 1008.2
20260505172519 57 5 3.0 8.0 0.00 0.08 0.00 77 1008.2
20260505172014 57 53 3.0 9.0 0.00 0.08 0.00 77 1008.2
20260505172007 57 30 3.0 9.0 0.00 0.08 0.04 77 1008.2
20260505171509 57 42 4.0 9.0 0.00 0.08 0.00 77 1008.3
20260505171507 57 25 4.0 9.0 0.00 0.08 0.04 77 1008.4
20260505171029 57 20 4.0 9.0 0.00 0.08 0.04 77 1008.4
20260505171013 57 25 4.0 9.0 0.00 0.08 0.00 77 1008.3
20260505170507 57 18 3.0 9.0 0.00 0.08 0.04 77 1008.4
20260505170505 57 42 3.0 9.0 0.00 0.08 0.00 77 1008.4
20260505170008 57 25 3.0 9.0 0.00 0.08 0.04 77 1008.5
20260505170004 57 35 3.0 9.0 0.00 0.08 0.00 77 1008.4
20260505165645 57 53 4.0 9.0 0.00 0.08 0.00 77 1008.5
20260505165525 57 43 3.0 9.0 0.00 0.08 0.00 77 1008.4
20260505165507 57 33 3.0 9.0 0.00 0.08 0.04 77 1008.5
20260505165030 57 28 4.0 9.0 0.00 0.08 0.04 77 1008.5
20260505164507 57 27 5.0 11.0 0.00 0.08 0.04 77 1008.6
20260505164505 57 5 5.0 11.0 0.00 0.08 0.00 77 1008.6
20260505164008 57 30 5.0 11.0 0.00 0.08 0.04 77 1008.6
20260505164001 57 26 5.0 11.0 0.00 0.08 0.00 77 1008.6
20260505163506 57 26 4.0 9.0 0.00 0.08 0.04 77 1008.5
20260505163502 57 46 4.0 9.0 0.00 0.08 0.00 77 1008.5
20260505163347 56 347 4.0 10.0 0.00 0.08 0.00 77 1008.6
20260505163103 57 31 4.0 9.0 0.00 0.08 0.00 77 1008.6
20260505163009 57 17 4.0 9.0 0.00 0.08 0.04 77 1008.6
20260505162521 57 17 4.0 9.0 0.00 0.08 0.00 78 1008.6
20260505162507 57 21 4.0 9.0 0.00 0.08 0.04 78 1008.7
20260505162029 56 25 4.0 10.0 0.00 0.08 0.04 78 1008.6
20260505161506 57 29 4.0 10.0 0.00 0.08 0.04 78 1008.6
20260505161503 57 5 4.0 10.0 0.00 0.08 0.00 78 1008.6
20260505161007 56 34 4.0 10.0 0.00 0.08 0.04 78 1008.7
20260505160957 56 31 4.0 10.0 0.00 0.08 0.00 78 1008.6
20260505160507 56 27 4.0 10.0 0.00 0.08 0.04 78 1008.6
20260505160457 56 42 4.0 10.0 0.00 0.08 0.00 78 1008.6
20260505153007 56 29 4.0 11.0 0.00 0.08 0.04 80 1008.8
20260505152950 56 34 4.0 11.0 0.00 0.08 0.00 80 1008.8
20260505152507 56 35 3.0 10.0 0.00 0.08 0.04 81 1008.9
20260505152443 56 80 3.0 10.0 0.00 0.08 0.00 81 1008.8
20260505152055 56 32 4.0 9.0 0.00 0.08 0.00 82 1008.8
20260505152007 56 26 4.0 10.0 0.00 0.08 0.04 81 1008.9
20260505152001 56 40 4.0 10.0 0.00 0.08 0.00 81 1008.8
20260505151508 56 24 4.0 9.0 0.00 0.08 0.04 82 1008.8
20260505151007 56 24 4.0 9.0 0.00 0.08 0.04 82 1008.9
20260505150940 56 10 4.0 9.0 0.00 0.08 0.00 82 1008.9
20260505150508 56 22 4.0 9.0 0.00 0.08 0.04 84 1009.1
20260505150445 55 22 4.0 9.0 0.00 0.08 0.00 84 1009.1
20260505140527 54 20 4.0 9.0 0.00 0.08 0.04 83 1009.4
20260505140432 55 35 4.0 9.0 0.00 0.08 0.00 83 1009.4
20260505125007 54 23 3.0 8.0 0.00 0.08 0.04 86 1009.9
20260505124948 54 31 3.0 8.0 0.00 0.08 0.00 86 1009.8
20260505124932 54 32 3.0 8.0 0.00 0.08 0.00 86 1009.8
20260505124528 54 19 3.0 8.0 0.00 0.08 0.04 86 1009.8
20260505124030 54 20 3.0 7.0 0.00 0.08 0.04 86 1009.9
20260505123921 54 26 2.0 7.0 0.00 0.08 0.00 86 1009.8
20260505123507 54 35 3.0 6.0 0.00 0.08 0.04 86 1009.9
20260505123410 54 86 3.0 6.0 0.00 0.08 0.00 86 1009.9
20260505123006 54 31 3.0 8.0 0.00 0.08 0.04 86 1010.0
20260505122917 54 67 3.0 8.0 0.00 0.08 0.00 86 1009.9
20260505122527 54 31 3.0 8.0 0.00 0.08 0.04 86 1010.0
20260505122412 54 24 3.0 8.0 0.00 0.08 0.00 86 1009.9
20260505122112 53 44 3.0 10.0 0.00 0.08 0.00 88 1010.1
20260505122007 54 37 3.0 7.0 0.00 0.08 0.04 86 1009.9
20260505121946 53 51 3.0 8.0 0.00 0.08 0.00 86 1009.9
20260505121905 54 95 3.0 9.0 0.00 0.08 0.00 86 1009.9
20260505121609 53 42 3.0 9.0 0.00 0.08 0.00 86 1010.0
20260505121528 54 31 3.0 9.0 0.00 0.08 0.04 86 1010.0
20260505121007 54 29 3.0 9.0 0.00 0.08 0.04 87 1010.0
20260505120507 53 30 3.0 7.0 0.00 0.08 0.04 87 1010.1
20260505120433 53 42 3.0 6.0 0.00 0.08 0.00 87 1010.0
20260505120119 53 30 4.0 9.0 0.00 0.08 0.00 87 1010.1
20260505120028 53 28 3.0 9.0 0.00 0.08 0.04 87 1010.1
20260505115528 53 35 3.0 9.0 0.00 0.08 0.04 87 1010.1
20260505115414 53 9 4.0 9.0 0.00 0.08 0.00 87 1010.1
20260505115028 53 36 4.0 10.0 0.00 0.08 0.04 87 1010.1
20260505114542 53 13 4.0 11.0 0.00 0.08 0.00 88 1010.1
20260505114506 53 28 3.0 10.0 0.00 0.08 0.04 88 1010.1
20260505114409 53 28 3.0 10.0 0.00 0.08 0.00 88 1010.1
20260505114007 53 28 4.0 9.0 0.00 0.08 0.04 88 1010.2